Theta_e
321 322 322 324 321 319 323 328 326 327 329 330 331 333 334 335 336 336 337 338 333 333 330 322 322 329 331 332 333 333 333 333 333 331 326 328 327 321 318 312 311 312 312 312 313 314 317 318 321
322 322 322 323 320 324 324 325 327 327 329 333 334 334 334 334 336 337 338 336 333 331 325 322 320 325 330 332 333 333 333 332 332 331 327 328 325 319 316 314 313 312 312 312 313 313 313 315 316
324 323 322 319 318 324 326 326 326 329 330 331 335 335 335 335 337 338 337 335 332 329 327 318 315 319 327 331 332 333 332 325 332 330 326 329 327 321 317 316 312 312 313 313 312 312 313 315 316
325 324 321 320 323 322 323 326 327 327 329 330 332 333 335 336 337 336 337 337 334 327 322 314 313 314 319 323 327 327 323 320 329 328 324 327 326 322 316 312 313 313 314 314 314 314 314 315 317
328 324 320 323 323 322 325 327 328 326 328 331 332 333 335 335 335 336 335 336 334 325 321 314 319 316 314 313 315 314 313 318 328 326 323 325 326 314 313 313 313 314 315 314 314 314 315 317 317
326 324 321 324 324 322 323 328 326 325 327 331 333 334 335 334 335 335 335 335 334 327 319 317 326 324 319 314 313 313 312 316 317 324 319 320 319 313 313 313 314 314 315 315 314 315 316 317 317
325 324 323 324 324 322 320 327 325 325 327 327 331 332 332 334 334 334 334 335 334 330 321 317 325 326 320 316 312 312 311 310 310 310 316 315 315 312 312 313 314 315 316 316 316 316 317 317 318
321 323 327 324 325 326 322 324 325 328 326 331 332 329 331 331 333 333 334 334 334 331 324 317 321 327 323 315 314 312 310 310 309 309 311 311 312 312 313 313 314 316 317 317 317 317 317 318 318
321 323 326 327 325 324 323 323 325 326 327 328 329 331 332 332 333 333 333 332 332 332 328 317 321 326 325 316 316 315 313 311 310 311 311 311 312 312 313 314 315 316 318 318 317 317 317 317 318
328 325 325 324 317 317 320 322 325 326 328 329 329 332 331 332 333 333 333 332 332 331 331 321 317 322 324 319 314 316 315 314 312 311 311 311 312 312 313 314 316 317 318 319 318 318 317 317 318
324 329 324 326 318 318 317 322 323 325 325 326 326 330 331 332 333 333 332 332 331 331 330 327 316 317 321 318 313 313 315 314 313 313 313 313 313 313 314 314 316 317 318 319 319 319 318 318 319
329 328 327 325 318 316 317 318 322 323 324 324 325 323 329 331 333 333 332 332 332 332 331 329 322 314 315 320 314 313 312 313 312 313 314 315 315 315 315 315 315 316 317 318 318 319 318 318 319
324 327 328 329 328 318 315 317 319 321 322 322 326 326 327 329 332 333 332 332 332 332 331 330 328 317 316 315 316 314 314 314 315 315 315 316 316 316 317 317 317 317 317 317 318 319 319 319 319
326 327 327 329 328 322 314 316 316 319 321 322 325 327 326 328 331 332 332 332 332 332 331 331 329 324 317 315 314 315 316 318 317 317 317 316 317 317 318 318 318 318 317 317 318 319 320 319 319
325 327 320 323 326 322 317 322 314 318 321 322 327 328 326 325 330 331 331 332 332 332 331 331 329 329 319 317 315 316 315 316 317 318 318 318 318 318 318 319 319 319 318 317 318 319 319 319 320
325 322 326 321 320 322 324 330 322 318 322 324 328 329 328 325 325 326 331 331 332 332 331 331 329 330 328 318 317 317 318 317 317 318 318 319 319 319 320 320 320 321 320 318 318 318 319 320 320
322 325 326 325 318 314 318 328 325 322 317 326 327 329 328 326 325 323 328 332 332 331 330 327 327 329 330 325 319 318 318 318 318 319 319 319 320 320 321 321 321 322 322 321 319 319 320 319 320
322 326 323 326 320 312 312 315 316 319 319 318 324 328 328 326 323 320 325 330 331 331 330 328 325 328 330 329 323 320 320 319 318 319 319 319 320 320 321 321 322 323 323 323 321 320 320 319 320
321 323 323 321 319 318 318 319 316 317 315 314 318 327 327 326 322 324 324 328 332 332 330 330 327 321 329 329 327 324 320 319 319 318 318 319 320 320 320 321 322 323 324 323 323 321 320 320 320
320 323 324 322 319 320 319 320 317 315 316 315 316 319 323 325 325 327 327 327 329 331 331 330 330 325 320 322 321 325 323 319 319 318 318 318 319 319 320 321 322 323 325 323 323 323 321 320 320
325 324 324 326 317 318 319 320 318 317 317 318 318 316 317 319 321 325 328 327 325 328 328 330 331 330 324 320 320 318 326 323 320 318 318 317 318 319 320 321 322 323 325 324 322 322 322 321 320
326 324 324 321 321 324 319 327 320 320 320 318 318 319 317 318 318 319 324 328 327 324 323 330 330 330 330 325 321 317 316 320 318 316 316 316 317 318 319 321 322 323 325 325 323 321 321 321 320
325 325 327 321 321 318 320 326 320 317 321 321 320 320 320 321 321 321 320 326 326 326 326 326 329 329 330 330 326 319 316 317 318 318 317 316 317 318 320 321 321 323 325 326 325 322 321 320 320
314 317 319 318 321 326 322 324 322 318 319 318 320 321 322 322 322 323 321 320 325 325 327 327 327 328 327 329 328 325 319 318 318 318 318 318 318 319 320 321 322 323 324 326 326 324 323 322 321
319 324 325 327 325 329 318 320 326 318 316 315 317 320 322 323 323 324 322 318 323 325 324 325 327 326 325 326 328 327 325 322 320 319 319 319 319 320 320 321 323 325 326 326 327 325 324 323 323
323 326 326 331 327 326 312 319 320 316 320 319 318 320 320 321 323 323 324 320 318 319 322 323 324 325 325 325 324 326 328 327 326 325 324 323 323 324 324 323 325 327 327 327 328 327 325 324 323
322 326 318 310 301 313 314 313 312 312 311 312 313 313 315 317 317 320 322 323 323 318 318 320 321 323 325 324 325 325 326 327 328 328 328 327 326 325 326 326 327 327 328 328 328 328 327 325 324
320 318 321 318 318 317 315 313 317 314 313 311 310 311 313 314 314 316 318 319 322 321 320 318 318 320 322 322 323 322 322 324 324 326 325 324 324 326 326 327 327 328 328 329 329 329 328 327 326
320 322 319 316 315 317 316 315 310 314 311 312 310 314 313 313 313 314 316 319 320 320 319 317 317 320 323 323 323 323 322 321 324 325 324 324 326 327 328 329 329 328 327 326 326 328 326 326 327
316 323 321 327 319 313 314 314 311 309 308 309 311 312 312 313 312 312 313 313 314 315 314 314 315 316 318 320 323 324 326 326 327 327 329 330 331 331 331 328 327 327 326 326 325 327 328 327 326
Wind_Speed
11 12 12 3 4 4 2 1 2 3 3 3 8 10 9 7 2 2 19 12 16 19 13 12 11 14 15 14 13 12 11 9 9 9 11 11 9 9 12 12 15 15 16 16 18 18 17 16 17
12 10 6 2 4 3 4 1 4 1 11 21 14 9 8 3 4 15 20 16 19 14 12 12 13 15 15 15 14 13 12 9 11 10 10 14 9 13 16 15 16 17 17 17 17 17 16 14 12
11 10 4 4 3 2 3 4 6 8 9 6 6 11 4 4 13 15 16 20 17 15 12 11 12 14 17 16 16 13 10 11 12 9 13 15 13 10 11 16 17 17 17 17 17 17 16 14 13
9 4 2 3 2 4 5 6 6 8 5 4 16 8 6 7 10 12 19 13 16 15 14 12 13 14 15 16 14 12 9 12 17 13 12 18 14 9 12 15 16 17 17 17 17 17 15 13 15
8 4 3 2 2 4 2 10 13 5 6 9 6 4 6 14 9 13 16 13 15 16 15 13 14 13 12 11 10 10 12 17 19 16 13 20 15 12 15 15 16 17 17 17 16 16 16 14 14
2 3 2 2 1 2 4 14 11 7 8 11 9 10 9 12 14 18 17 14 12 15 15 15 14 13 13 12 11 11 13 16 17 16 13 17 14 14 15 16 16 16 16 16 16 16 15 14 13
4 3 3 2 3 2 5 14 9 9 10 5 16 6 10 19 17 20 17 14 12 12 14 15 14 13 12 12 10 10 10 12 12 12 12 13 13 14 14 14 15 15 15 15 15 15 14 13 12
3 3 1 2 2 4 3 5 8 17 4 16 9 8 7 25 23 22 19 16 13 13 13 15 14 14 13 12 10 10 10 13 13 13 12 12 16 15 14 13 14 14 14 14 13 14 13 11 9
4 2 3 3 1 5 4 3 4 6 12 7 8 8 5 32 26 24 21 19 17 15 14 16 15 14 13 11 12 12 12 13 13 13 14 13 14 14 13 13 12 12 13 12 12 11 10 9 8
4 3 5 1 2 3 7 3 10 5 8 4 7 8 16 32 31 29 27 25 22 19 18 17 17 16 15 13 11 11 13 13 13 13 14 13 13 13 12 12 12 12 11 10 9 7 5 6 6
7 5 3 5 5 7 6 2 4 13 3 11 14 17 25 34 33 30 28 25 23 21 18 19 18 17 17 16 14 13 14 13 13 13 13 13 13 13 12 10 10 10 9 8 6 5 5 5 5
3 10 7 4 5 7 5 8 3 11 5 5 10 15 24 36 37 35 31 28 26 25 20 18 18 18 18 17 17 15 15 14 14 12 12 12 12 12 11 10 9 9 8 7 6 5 4 4 4
3 5 11 19 14 10 13 8 7 10 8 4 12 19 23 32 36 34 31 29 28 27 24 21 20 19 18 20 19 18 17 16 14 12 11 12 11 10 9 9 9 8 7 7 7 6 5 5 4
10 11 7 14 20 12 5 7 3 8 11 11 15 22 24 29 32 34 33 33 32 28 27 23 21 20 20 19 20 19 18 16 14 13 13 12 11 11 11 10 9 8 7 7 7 7 6 6 6
5 6 3 10 11 6 5 12 8 11 15 16 23 24 25 28 29 36 35 37 35 32 28 27 23 21 22 20 20 19 18 17 15 14 15 15 13 12 11 10 8 8 7 7 8 8 8 8 6
5 4 3 4 11 10 9 16 10 15 16 22 26 27 27 27 29 29 32 34 35 32 33 31 28 25 24 24 23 22 20 18 16 17 17 16 15 14 13 12 10 9 9 9 10 10 9 9 7
5 4 5 2 18 4 9 12 21 20 20 24 28 30 30 28 30 30 30 34 34 32 31 35 33 30 28 27 26 24 23 22 20 20 20 18 17 17 15 14 12 12 12 12 12 12 11 10 8
6 5 5 7 8 7 7 16 9 9 21 28 33 34 34 32 30 29 31 32 33 32 32 32 36 34 31 30 29 27 26 24 23 23 22 20 20 19 18 17 16 15 15 15 16 15 14 11 9
12 8 9 4 6 8 20 17 16 21 13 19 31 38 37 36 27 27 31 32 32 32 34 34 37 37 35 35 33 33 32 29 27 26 24 23 24 22 21 20 20 19 18 16 18 18 17 15 13
9 9 10 5 5 10 4 18 12 12 17 25 31 36 37 36 33 31 31 34 35 35 36 37 37 38 38 39 37 36 35 32 30 28 28 27 27 26 25 24 23 22 20 17 18 21 21 18 19
11 14 7 4 2 4 1 7 9 11 25 31 32 35 36 37 36 37 36 36 36 39 38 40 39 39 38 39 39 38 39 38 35 35 32 32 30 29 29 27 26 25 24 22 17 20 24 21 20
19 8 9 5 7 5 7 5 6 7 14 17 32 36 37 34 34 32 39 38 37 38 38 40 38 38 40 40 40 41 40 42 39 37 35 34 33 32 31 30 28 28 28 26 22 19 21 22 22
7 9 7 5 6 2 3 3 6 3 7 19 22 35 41 49 42 36 35 41 39 37 37 37 38 39 40 42 42 41 42 41 41 40 39 37 35 35 34 32 31 31 31 30 28 27 27 27 26
9 7 6 4 3 4 6 7 5 6 12 6 17 29 37 43 42 41 38 37 41 39 39 37 36 39 40 41 41 42 41 41 41 41 40 38 37 36 36 36 35 34 34 35 33 32 33 33 33
6 9 2 2 3 6 4 8 14 9 6 6 7 11 24 33 38 39 40 40 43 42 39 38 38 38 38 40 41 41 42 41 42 42 41 40 39 39 39 38 37 37 36 37 37 37 37 37 39
25 14 6 11 6 4 4 8 7 12 23 20 15 16 12 15 26 31 38 40 38 40 41 40 40 38 38 38 39 39 40 41 41 41 41 42 41 40 38 38 38 37 38 38 40 41 40 40 40
10 11 7 7 2 3 5 6 10 9 9 10 17 14 17 18 15 18 28 36 39 41 39 40 40 38 38 34 35 38 38 39 40 39 40 39 39 39 38 38 37 36 37 38 39 42 44 43 43
11 9 4 0 6 4 4 5 6 9 11 8 8 17 15 18 19 18 18 24 31 36 37 39 40 39 36 32 33 33 35 36 37 39 40 40 39 39 39 38 38 36 36 36 37 39 42 47 46
8 9 6 6 3 6 3 6 8 17 8 12 12 21 21 19 17 16 16 17 22 25 28 31 35 35 36 34 32 33 34 35 37 40 40 41 41 42 42 40 39 36 35 34 37 39 39 41 46
3 11 11 8 7 4 3 5 2 7 8 13 16 16 18 21 18 16 16 16 17 19 21 25 27 29 30 32 35 37 38 40 40 41 43 44 45 44 43 40 40 39 39 39 39 40 41 41 41
Wind_Direction
328 331 329 343 54 65 293 349 182 129 54 47 85 106 111 76 49 162 139 148 161 159 158 152 160 144 140 136 135 138 131 119 106 97 98 109 93 101 123 114 102 100 96 97 100 102 101 94 89
325 328 344 44 84 63 275 256 147 193 129 105 88 87 54 79 89 134 152 156 169 163 165 157 161 150 143 143 143 138 127 124 124 110 115 108 97 97 108 105 102 98 98 98 101 105 104 101 93
320 330 4 78 105 169 194 188 162 131 140 121 98 77 75 105 127 138 152 154 166 165 162 159 159 158 155 163 162 162 160 137 143 135 127 117 114 103 111 105 107 102 98 99 102 103 106 107 100
341 360 31 84 217 258 192 180 156 132 105 92 124 73 87 141 141 179 156 172 168 162 163 161 155 160 165 174 179 184 187 146 138 140 136 127 127 125 118 108 105 101 100 100 101 106 110 106 96
346 12 17 331 251 289 107 175 159 133 125 120 129 132 99 145 183 172 162 172 175 162 162 157 144 148 156 166 173 177 161 153 144 148 145 147 134 121 120 113 109 107 106 106 110 113 112 108 100
59 53 35 256 298 232 158 173 164 135 137 133 105 116 136 144 174 173 174 175 180 168 161 154 154 152 155 159 155 155 147 154 154 140 136 148 133 118 118 115 114 115 114 114 114 113 111 107 97
99 87 232 308 278 313 204 185 173 150 145 145 139 109 149 158 181 180 179 188 179 175 168 164 164 153 152 154 154 150 152 143 145 139 134 137 141 129 123 121 122 121 120 119 117 114 110 105 100
110 118 293 256 229 261 222 144 166 153 131 137 163 162 176 171 180 182 188 190 182 182 183 176 175 168 160 158 160 155 161 145 139 140 142 133 137 138 133 129 127 127 124 121 120 123 122 115 108
130 85 211 253 337 272 194 128 121 154 142 149 158 157 177 164 176 184 188 190 192 186 190 186 180 176 165 166 162 159 152 148 145 145 143 141 142 140 138 132 132 132 130 131 131 128 123 118 114
141 186 205 316 278 314 308 200 146 144 131 119 147 157 161 168 178 188 187 193 197 196 189 194 189 186 178 174 173 166 163 158 158 156 149 150 147 144 140 139 143 143 142 142 140 136 127 116 121
181 209 148 274 328 325 308 258 188 152 214 203 197 169 169 173 181 189 193 199 201 203 198 192 196 196 190 183 180 176 176 169 168 164 157 159 155 152 151 153 152 151 153 155 153 150 139 127 127
157 240 258 250 339 331 301 317 241 190 192 228 217 195 182 180 187 193 198 201 204 204 202 200 197 199 201 198 190 184 184 184 181 177 170 168 158 159 159 163 166 168 172 172 176 170 155 150 150
216 202 225 251 277 310 293 264 257 236 192 205 202 187 191 189 192 198 201 206 208 208 203 207 202 200 199 200 200 194 190 193 193 185 181 175 171 172 170 173 177 186 195 194 194 185 182 179 171
208 191 195 252 273 256 294 283 279 244 210 210 194 193 196 197 197 195 202 204 208 209 208 210 212 207 202 202 203 203 198 198 197 193 193 188 186 189 188 189 191 199 208 209 204 199 200 193 186
166 151 166 223 240 269 266 274 218 239 197 198 194 197 198 203 200 204 206 208 213 211 211 213 215 216 214 209 206 208 205 208 206 203 206 203 203 203 202 206 208 214 221 224 217 213 206 198 196
137 125 155 206 190 251 180 252 229 224 200 193 202 202 205 209 212 214 214 211 212 217 215 215 215 218 222 218 212 213 210 212 211 213 217 214 215 218 217 219 221 230 234 233 229 223 211 206 215
203 169 187 256 197 161 196 245 254 238 209 206 207 207 212 214 217 222 216 217 214 213 214 217 218 217 223 221 220 219 217 217 217 217 222 223 222 225 227 231 234 237 240 240 233 224 219 218 219
166 160 211 200 203 190 209 244 272 256 226 218 215 216 216 216 223 225 216 215 218 216 217 219 220 222 223 227 222 223 224 224 223 226 228 227 231 231 234 236 239 243 245 243 236 229 225 221 221
163 180 223 238 189 170 225 241 242 255 253 235 218 217 220 224 226 226 222 218 218 222 222 223 220 222 221 230 221 223 226 225 225 227 231 232 235 236 238 240 241 243 246 254 249 235 225 219 213
174 186 212 256 168 193 208 242 243 243 246 238 221 218 224 230 227 223 220 220 222 223 224 227 228 224 222 227 234 230 231 231 233 235 235 236 237 239 241 243 244 245 247 247 242 235 228 223 220
206 204 189 218 123 225 41 277 240 248 241 247 243 237 231 229 230 228 221 219 222 224 224 226 228 230 227 228 233 236 233 235 234 235 236 238 240 242 244 246 247 246 246 246 249 242 231 232 228
207 167 182 153 153 233 174 272 258 233 236 229 236 239 233 230 230 233 228 223 221 226 229 230 232 233 234 231 234 236 234 235 238 240 241 242 244 245 246 249 248 249 248 246 246 241 240 232 234
221 153 169 147 161 343 225 233 259 216 250 242 232 234 236 240 238 235 231 228 228 230 230 233 235 237 239 236 236 238 240 241 244 245 246 245 248 250 250 251 251 249 248 250 247 242 237 234 242
145 99 65 65 124 238 211 210 253 196 225 241 237 237 237 239 237 235 236 233 230 232 233 235 238 241 240 238 238 241 242 243 245 247 249 251 252 252 254 255 254 251 250 250 251 249 245 246 245
142 149 136 218 189 228 201 210 242 252 241 219 198 232 238 241 238 233 231 229 227 229 235 237 238 241 242 241 242 243 245 246 250 253 255 255 256 257 258 258 259 258 255 253 250 250 250 249 249
188 176 169 187 189 163 135 227 246 228 242 235 236 269 247 237 235 231 231 230 231 234 236 238 239 241 243 244 246 247 248 250 252 254 256 260 262 264 265 265 264 266 264 260 256 253 254 255 254
179 200 171 106 52 94 204 271 296 252 256 228 229 227 231 221 221 228 232 232 233 233 234 238 241 244 243 249 251 250 251 252 253 257 260 261 264 265 266 267 267 267 267 265 263 259 256 256 256
180 140 131 359 153 225 251 276 230 248 222 221 221 221 219 209 215 222 230 229 228 232 239 243 244 245 248 251 252 254 256 257 259 259 259 261 264 265 268 270 271 272 270 268 265 263 261 258 257
158 179 199 124 173 173 176 250 212 224 199 204 210 224 219 208 208 211 213 214 222 229 234 238 242 243 243 245 250 252 254 256 258 258 261 263 266 267 269 271 272 273 270 267 265 260 265 266 261
222 192 177 193 211 222 174 263 224 214 193 183 192 201 202 197 198 202 207 210 215 221 230 236 237 239 241 244 247 250 253 255 259 262 265 267 269 272 275 277 273 273 271 269 267 265 265 268 265